Torna al catalogo

CZ-6A DEB

AttivoPO
NORAD 61472·DEBRIS·🇨🇳 China

Lanciato Aug 6, 2024 da Taiyuan Satellite Launch Center

Loading…

Prossimi Passaggi (prossime 24 ore)

TLE

AggiornatoSource: Space-Track

Epoca: Sep 14, 2026, 11:55 UTC

1 61472U 24140AAE 26257.49670838  .00001032  00000-0  77820-3 0  9991
2 61472  89.0329 273.5129 0231434  48.1042 313.9613 13.81610131102226

Traccia CZ-6A DEB in tempo reale con AllMySat

Download on the App Store